This is the latest recevied weather packets stored in our database for station/object EA5LU-10. If no packets are shown the sender has not sent any weather packets the latest 10 day(s).
| Time | Temp. | Humidity | Pressure | Rain* | Wind** | Luminosity | Snow |
|---|---|---|---|---|---|---|---|
| 1777532607 | 17.22° C | 82% | 1007.3 hPa | - | - | - | - |
| 1777531706 | 16.67° C | 82% | 1007.1 hPa | - | - | - | - |
| 1777530805 | 16.67° C | 83% | 1007 hPa | - | - | - | - |
| 1777529905 | 16.67° C | 83% | 1006.8 hPa | - | - | - | - |
| 1777529004 | 16.11° C | 85% | 1006.8 hPa | - | - | - | - |
| 1777528103 | 15.56° C | 86% | 1006.7 hPa | - | - | - | - |
| 1777527202 | 15° C | 87% | 1006.5 hPa | - | - | - | - |
| 1777526301 | 15.56° C | 86% | 1006.4 hPa | - | - | - | - |
| 1777525401 | 16.11° C | 86% | 1006.1 hPa | - | - | - | - |
| 1777524500 | 16.11° C | 87% | 1006 hPa | - | - | - | - |
| 1777523599 | 15.56° C | 87% | 1006 hPa | - | - | - | - |
| 1777522698 | 16.11° C | 86% | 1006 hPa | - | - | - | - |
| 1777521797 | 16.67° C | 86% | 1005.7 hPa | - | - | - | - |
| 1777520896 | 16.67° C | 87% | 1005.7 hPa | - | - | - | - |
| 1777519995 | 16.67° C | 87% | 1005.9 hPa | - | - | - | - |
| 1777519094 | 16.67° C | 86% | 1005.9 hPa | - | - | - | - |
| 1777518194 | 17.22° C | 84% | 1006 hPa | - | - | - | - |
| 1777517293 | 17.22° C | 82% | 1005.9 hPa | - | - | - | - |
| 1777516392 | 17.22° C | 81% | 1005.9 hPa | - | - | - | - |
| 1777515491 | 17.22° C | 81% | 1005.7 hPa | - | - | - | - |
| 1777514590 | 17.22° C | 81% | 1005.8 hPa | - | - | - | - |
| 1777513690 | 17.22° C | 81% | 1005.8 hPa | - | - | - | - |
| 1777512789 | 17.22° C | 81% | 1005.7 hPa | - | - | - | - |
| 1777511888 | 17.22° C | 79% | 1005.6 hPa | - | - | - | - |
| 1777510987 | 17.22° C | 80% | 1005.5 hPa | - | - | - | - |
* Rain since midnight (hover to see other rain measurements)
** Current wind speed in m/s (hover to see current wind gust speed)